| time (UTC) | temp C | wind direction | speed KPH | gust KPH | rain 1hr cm | rain 24hr cm | rain mn cm | humidity % | barometer mb |
| 20260505002029 | 21 | 180 | 0.0 | 0.0 | 0.00 | 0.00 | 0.00 | 44 | 1012.3 |
| 20260505001530 | 21 | 180 | 0.0 | 0.0 | 0.00 | 0.00 | 0.00 | 44 | 1012.1 |
| 20260505001029 | 21 | 180 | 0.0 | 0.0 | 0.00 | 0.00 | 0.00 | 42 | 1012.3 |
| 20260505000528 | 21 | 180 | 0.0 | 0.0 | 0.00 | 0.00 | 0.00 | 41 | 1012.4 |
| 20260505000042 | 22 | 180 | 0.0 | 0.0 | 0.00 | 0.00 | 0.00 | 41 | 1012.5 |
| 20260504235529 | 22 | 180 | 0.0 | 0.0 | 0.00 | 0.00 | 0.00 | 40 | 1012.5 |
| 20260504235028 | 22 | 180 | 0.0 | 0.0 | 0.00 | 0.00 | 0.00 | 40 | 1012.4 |
| 20260504234528 | 22 | 180 | 0.0 | 0.0 | 0.00 | 0.00 | 0.00 | 39 | 1012.2 |
| 20260504234027 | 22 | 180 | 0.0 | 1.6 | 0.00 | 0.00 | 0.00 | 39 | 1012.3 |
| 20260504233527 | 22 | 180 | 0.0 | 1.6 | 0.00 | 0.00 | 0.00 | 38 | 1012.2 |
| 20260504233027 | 22 | 180 | 0.0 | 3.2 | 0.00 | 0.00 | 0.00 | 38 | 1012.2 |
| 20260504232528 | 22 | 180 | 0.0 | 3.2 | 0.00 | 0.00 | 0.00 | 38 | 1012.1 |
| 20260504232027 | 22 | 180 | 0.0 | 1.6 | 0.00 | 0.00 | 0.00 | 37 | 1012.1 |
| 20260504231527 | 22 | 180 | 0.0 | 3.2 | 0.00 | 0.00 | 0.00 | 37 | 1011.9 |
| 20260504231027 | 23 | 180 | 0.0 | 3.2 | 0.00 | 0.00 | 0.00 | 36 | 1012.0 |
| 20260504230527 | 23 | 180 | 1.6 | 6.4 | 0.00 | 0.00 | 0.00 | 36 | 1011.9 |
| 20260504230027 | 23 | 57 | 1.6 | 11.3 | 0.00 | 0.00 | 0.00 | 36 | 1011.9 |
| 20260504225531 | 23 | 207 | 1.6 | 14.5 | 0.00 | 0.00 | 0.00 | 35 | 1012.0 |
| 20260504225025 | 23 | 155 | 1.6 | 14.5 | 0.00 | 0.00 | 0.00 | 34 | 1012.0 |
| 20260504224525 | 23 | 194 | 1.6 | 4.8 | 0.00 | 0.00 | 0.00 | 35 | 1012.1 |
| 20260504224025 | 23 | 231 | 1.6 | 6.4 | 0.00 | 0.00 | 0.00 | 35 | 1012.2 |
| 20260504223525 | 23 | 111 | 1.6 | 6.4 | 0.00 | 0.00 | 0.00 | 34 | 1012.1 |
| 20260504223026 | 23 | 192 | 1.6 | 6.4 | 0.00 | 0.00 | 0.00 | 34 | 1012.1 |
| 20260504222525 | 23 | 214 | 1.6 | 11.3 | 0.00 | 0.00 | 0.00 | 34 | 1012.2 |
| 20260504222025 | 23 | 237 | 3.2 | 11.3 | 0.00 | 0.00 | 0.00 | 34 | 1012.1 |
| 20260504221527 | 23 | 238 | 1.6 | 8.0 | 0.00 | 0.00 | 0.00 | 34 | 1012.0 |
| 20260504221025 | 23 | 208 | 1.6 | 6.4 | 0.00 | 0.00 | 0.00 | 34 | 1011.9 |
| 20260504220526 | 23 | 210 | 3.2 | 6.4 | 0.00 | 0.00 | 0.00 | 33 | 1012.1 |
| 20260504220040 | 23 | 227 | 1.6 | 6.4 | 0.00 | 0.00 | 0.00 | 35 | 1012.0 |
| 20260504215524 | 23 | 228 | 1.6 | 6.4 | 0.00 | 0.00 | 0.00 | 35 | 1012.0 |
| 20260504215026 | 23 | 228 | 3.2 | 6.4 | 0.00 | 0.00 | 0.00 | 32 | 1012.0 |
| 20260504214524 | 24 | 119 | 1.6 | 6.4 | 0.00 | 0.00 | 0.00 | 32 | 1012.1 |
| 20260504214022 | 24 | 189 | 1.6 | 6.4 | 0.00 | 0.00 | 0.00 | 33 | 1012.0 |
| 20260504213524 | 24 | 241 | 0.0 | 6.4 | 0.00 | 0.00 | 0.00 | 32 | 1012.1 |
| 20260504213023 | 24 | 233 | 1.6 | 8.0 | 0.00 | 0.00 | 0.00 | 31 | 1012.1 |
| 20260504212522 | 24 | 233 | 3.2 | 9.7 | 0.00 | 0.00 | 0.00 | 31 | 1012.0 |
| 20260504212024 | 24 | 222 | 3.2 | 9.7 | 0.00 | 0.00 | 0.00 | 32 | 1012.0 |
| 20260504211526 | 24 | 221 | 0.0 | 6.4 | 0.00 | 0.00 | 0.00 | 33 | 1012.0 |
| 20260504211021 | 24 | 229 | 3.2 | 6.4 | 0.00 | 0.00 | 0.00 | 31 | 1012.1 |
| 20260504210521 | 25 | 210 | 1.6 | 14.5 | 0.00 | 0.00 | 0.00 | 31 | 1012.1 |
| 20260504210022 | 25 | 159 | 4.8 | 14.5 | 0.00 | 0.00 | 0.00 | 31 | 1012.0 |
| 20260504205521 | 25 | 220 | 1.6 | 6.4 | 0.00 | 0.00 | 0.00 | 31 | 1011.9 |
| 20260504205019 | 25 | 207 | 1.6 | 11.3 | 0.00 | 0.00 | 0.00 | 31 | 1012.0 |
| 20260504204534 | 25 | 155 | 3.2 | 11.3 | 0.00 | 0.00 | 0.00 | 29 | 1012.0 |
| 20260504204019 | 25 | 118 | 1.6 | 8.0 | 0.00 | 0.00 | 0.00 | 31 | 1012.1 |
| 20260504203519 | 25 | 209 | 1.6 | 6.4 | 0.00 | 0.00 | 0.00 | 30 | 1012.2 |
| 20260504203018 | 26 | 203 | 1.6 | 8.0 | 0.00 | 0.00 | 0.00 | 30 | 1012.1 |
| 20260504202518 | 26 | 202 | 3.2 | 8.0 | 0.00 | 0.00 | 0.00 | 29 | 1012.3 |
| 20260504202016 | 26 | 247 | 1.6 | 8.0 | 0.00 | 0.00 | 0.00 | 29 | 1012.2 |
| 20260504201517 | 26 | 220 | 3.2 | 8.0 | 0.00 | 0.00 | 0.00 | 28 | 1012.2 |
| 20260504201016 | 27 | 217 | 1.6 | 6.4 | 0.00 | 0.00 | 0.00 | 28 | 1012.3 |
| 20260504200515 | 27 | 198 | 3.2 | 8.0 | 0.00 | 0.00 | 0.00 | 29 | 1012.3 |
| 20260504200016 | 27 | 232 | 3.2 | 8.0 | 0.00 | 0.00 | 0.00 | 28 | 1012.4 |
| 20260504195516 | 27 | 156 | 3.2 | 8.0 | 0.00 | 0.00 | 0.00 | 28 | 1012.4 |
| 20260504195015 | 27 | 238 | 1.6 | 6.4 | 0.00 | 0.00 | 0.00 | 27 | 1012.5 |
| 20260504194515 | 27 | 238 | 1.6 | 6.4 | 0.00 | 0.00 | 0.00 | 28 | 1012.5 |
| 20260504194014 | 27 | 110 | 0.0 | 4.8 | 0.00 | 0.00 | 0.00 | 28 | 1012.5 |
| 20260504193511 | 27 | 90 | 0.0 | 4.8 | 0.00 | 0.00 | 0.00 | 28 | 1012.7 |
| 20260504193011 | 27 | 159 | 1.6 | 4.8 | 0.00 | 0.00 | 0.00 | 29 | 1012.7 |
| 20260504192509 | 27 | 142 | 1.6 | 4.8 | 0.00 | 0.00 | 0.00 | 30 | 1012.9 |
| 20260504192011 | 26 | 142 | 0.0 | 6.4 | 0.00 | 0.00 | 0.00 | 30 | 1012.9 |
| 20260504191507 | 26 | 142 | 1.6 | 6.4 | 0.00 | 0.00 | 0.00 | 30 | 1013.0 |
| 20260504191006 | 26 | 138 | 1.6 | 4.8 | 0.00 | 0.00 | 0.00 | 29 | 1013.1 |
| 20260504190505 | 26 | 146 | 1.6 | 14.5 | 0.00 | 0.00 | 0.00 | 31 | 1013.1 |
| 20260504190010 | 25 | 125 | 1.6 | 14.5 | 0.00 | 0.00 | 0.00 | 31 | 1013.1 |
| 20260504185502 | 25 | 195 | 3.2 | 11.3 | 0.00 | 0.00 | 0.00 | 31 | 1013.3 |
| 20260504185005 | 25 | 152 | 3.2 | 8.0 | 0.00 | 0.00 | 0.00 | 31 | 1013.4 |
| 20260504184504 | 25 | 224 | 1.6 | 6.4 | 0.00 | 0.00 | 0.00 | 34 | 1013.4 |
| 20260504184001 | 25 | 224 | 1.6 | 4.8 | 0.00 | 0.00 | 0.00 | 32 | 1013.4 |
| 20260504183502 | 25 | 224 | 0.0 | 4.8 | 0.00 | 0.00 | 0.00 | 33 | 1013.3 |
| 20260504183001 | 25 | 224 | 1.6 | 4.8 | 0.00 | 0.00 | 0.00 | 31 | 1013.4 |
| 20260504182600 | 25 | 217 | 1.6 | 4.8 | 0.00 | 0.00 | 0.00 | 31 | 1013.5 |
| 20260504182059 | 25 | 217 | 1.6 | 6.4 | 0.00 | 0.00 | 0.00 | 31 | 1013.5 |
| 20260504181559 | 25 | 190 | 3.2 | 6.4 | 0.00 | 0.00 | 0.00 | 30 | 1013.8 |
| 20260504181058 | 25 | 149 | 3.2 | 14.5 | 0.00 | 0.00 | 0.00 | 30 | 1013.8 |
| 20260504180559 | 24 | 214 | 3.2 | 14.5 | 0.00 | 0.00 | 0.00 | 30 | 1013.8 |
| 20260504180137 | 24 | 190 | 1.6 | 9.7 | 0.00 | 0.00 | 0.00 | 31 | 1014.1 |
| 20260504175557 | 24 | 179 | 3.2 | 9.7 | 0.00 | 0.00 | 0.00 | 31 | 1014.2 |
| 20260504175056 | 24 | 198 | 3.2 | 6.4 | 0.00 | 0.00 | 0.00 | 32 | 1014.2 |
| 20260504174554 | 24 | 223 | 1.6 | 9.7 | 0.00 | 0.00 | 0.00 | 32 | 1014.2 |
| 20260504174055 | 24 | 215 | 3.2 | 9.7 | 0.00 | 0.00 | 0.00 | 31 | 1014.3 |
| 20260504173554 | 24 | 196 | 1.6 | 8.0 | 0.00 | 0.00 | 0.00 | 34 | 1014.3 |
| 20260504173053 | 25 | 145 | 3.2 | 8.0 | 0.00 | 0.00 | 0.00 | 33 | 1014.4 |
| 20260504172553 | 25 | 214 | 0.0 | 6.4 | 0.00 | 0.00 | 0.00 | 32 | 1014.4 |
| 20260504172056 | 25 | 213 | 1.6 | 6.4 | 0.00 | 0.00 | 0.00 | 32 | 1014.5 |
| 20260504171553 | 25 | 199 | 0.0 | 6.4 | 0.00 | 0.00 | 0.00 | 32 | 1014.5 |
| 20260504171052 | 25 | 198 | 1.6 | 6.4 | 0.00 | 0.00 | 0.00 | 32 | 1014.7 |
| 20260504170551 | 25 | 163 | 1.6 | 4.8 | 0.00 | 0.00 | 0.00 | 30 | 1014.6 |
| 20260504151027 | 22 | 175 | 3.2 | 8.0 | 0.00 | 0.00 | 0.00 | 35 | 1015.8 |
| 20260504150526 | 22 | 151 | 1.6 | 12.9 | 0.00 | 0.00 | 0.00 | 35 | 1015.8 |
| 20260504141010 | 18 | 115 | 1.6 | 6.4 | 0.00 | 0.00 | 0.00 | 44 | 1016.0 |
| 20260504140508 | 18 | 127 | 0.0 | 3.2 | 0.00 | 0.00 | 0.00 | 47 | 1016.1 |
| 20260504130552 | 15 | 213 | 0.0 | 3.2 | 0.00 | 0.00 | 0.00 | 52 | 1016.3 |
| 20260504110525 | 10 | 130 | 1.6 | 3.2 | 0.00 | 0.00 | 0.00 | 55 | 1016.7 |
| 20260504100519 | 10 | 126 | 0.0 | 3.2 | 0.00 | 0.00 | 0.00 | 56 | 1016.5 |
| 20260504081512 | 10 | 140 | 0.0 | 0.0 | 0.00 | 0.00 | 0.00 | 56 | 1016.9 |
| 20260504081013 | 10 | 140 | 0.0 | 0.0 | 0.00 | 0.00 | 0.00 | 56 | 1016.9 |
| 20260504080512 | 10 | 140 | 0.0 | 0.0 | 0.00 | 0.00 | 0.00 | 56 | 1016.9 |
| 20260504060106 | 7 | 129 | 0.0 | 3.2 | 0.00 | 0.00 | 0.00 | 35 | 1017.0 |
| 20260504050551 | 7 | 111 | 0.0 | 3.2 | 0.00 | 0.00 | 0.00 | 39 | 1016.9 |
| 20260504045549 | 7 | 113 | 1.6 | 3.2 | 0.00 | 0.00 | 0.00 | 41 | 1016.8 |
| 20260504045048 | 7 | 119 | 0.0 | 3.2 | 0.00 | 0.00 | 0.00 | 41 | 1016.8 |
| 20260504044547 | 7 | 241 | 0.0 | 0.0 | 0.00 | 0.00 | 0.00 | 41 | 1016.8 |
| 20260504044047 | 7 | 241 | 0.0 | 0.0 | 0.00 | 0.00 | 0.00 | 41 | 1016.8 |
| 20260504043549 | 7 | 241 | 0.0 | 0.0 | 0.00 | 0.00 | 0.00 | 41 | 1016.8 |
| 20260504043055 | 7 | 241 | 0.0 | 0.0 | 0.00 | 0.00 | 0.00 | 42 | 1016.8 |
| 20260504042547 | 7 | 241 | 0.0 | 0.0 | 0.00 | 0.00 | 0.00 | 42 | 1016.8 |
| 20260504042049 | 7 | 241 | 0.0 | 0.0 | 0.00 | 0.00 | 0.00 | 42 | 1016.9 |
| 20260504041545 | 8 | 241 | 0.0 | 0.0 | 0.00 | 0.00 | 0.00 | 42 | 1016.9 |
| 20260504041043 | 8 | 241 | 0.0 | 0.0 | 0.00 | 0.00 | 0.00 | 43 | 1016.8 |
| 20260504040543 | 8 | 241 | 0.0 | 0.0 | 0.00 | 0.00 | 0.00 | 44 | 1016.8 |
| 20260504040044 | 8 | 241 | 0.0 | 0.0 | 0.00 | 0.00 | 0.00 | 44 | 1016.8 |
| 20260504035540 | 8 | 241 | 0.0 | 0.0 | 0.00 | 0.00 | 0.00 | 45 | 1016.9 |
| 20260504035044 | 8 | 241 | 0.0 | 0.0 | 0.00 | 0.00 | 0.00 | 46 | 1016.8 |
| 20260504034539 | 8 | 241 | 0.0 | 0.0 | 0.00 | 0.00 | 0.00 | 46 | 1016.9 |
| 20260504034035 | 8 | 241 | 0.0 | 0.0 | 0.00 | 0.00 | 0.00 | 47 | 1016.9 |
| 20260504033534 | 8 | 241 | 0.0 | 0.0 | 0.00 | 0.00 | 0.00 | 48 | 1016.8 |
| 20260504033037 | 8 | 241 | 0.0 | 0.0 | 0.00 | 0.00 | 0.00 | 48 | 1017.0 |
| 20260504032532 | 8 | 241 | 0.0 | 0.0 | 0.00 | 0.00 | 0.00 | 48 | 1016.8 |
| 20260504032033 | 8 | 241 | 0.0 | 0.0 | 0.00 | 0.00 | 0.00 | 49 | 1016.8 |
| 20260504031529 | 8 | 241 | 0.0 | 0.0 | 0.00 | 0.00 | 0.00 | 49 | 1016.8 |
| 20260504031027 | 8 | 241 | 0.0 | 0.0 | 0.00 | 0.00 | 0.00 | 50 | 1016.8 |
| 20260504030526 | 8 | 241 | 0.0 | 0.0 | 0.00 | 0.00 | 0.00 | 51 | 1016.7 |
| 20260504030024 | 8 | 241 | 0.0 | 0.0 | 0.00 | 0.00 | 0.00 | 51 | 1016.7 |
| 20260504025525 | 8 | 241 | 0.0 | 0.0 | 0.00 | 0.00 | 0.00 | 52 | 1016.8 |
| 20260504025023 | 8 | 241 | 0.0 | 0.0 | 0.00 | 0.00 | 0.00 | 52 | 1016.7 |
| 20260504024519 | 8 | 241 | 0.0 | 0.0 | 0.00 | 0.00 | 0.00 | 52 | 1016.8 |
| 20260504024019 | 9 | 241 | 0.0 | 0.0 | 0.00 | 0.00 | 0.00 | 52 | 1016.8 |
| 20260504023517 | 9 | 241 | 0.0 | 0.0 | 0.00 | 0.00 | 0.00 | 52 | 1016.8 |
| 20260504023016 | 9 | 241 | 0.0 | 0.0 | 0.00 | 0.00 | 0.00 | 52 | 1016.8 |
| 20260504022515 | 9 | 241 | 0.0 | 0.0 | 0.00 | 0.00 | 0.00 | 53 | 1016.8 |
| 20260504022015 | 9 | 241 | 0.0 | 0.0 | 0.00 | 0.00 | 0.00 | 53 | 1016.7 |
| 20260504021515 | 9 | 241 | 0.0 | 0.0 | 0.00 | 0.00 | 0.00 | 53 | 1016.7 |
| 20260504021012 | 10 | 241 | 0.0 | 0.0 | 0.00 | 0.00 | 0.00 | 54 | 1016.8 |
| 20260504020511 | 10 | 241 | 0.0 | 0.0 | 0.00 | 0.00 | 0.00 | 54 | 1016.8 |
| 20260504020009 | 10 | 241 | 0.0 | 0.0 | 0.00 | 0.00 | 0.00 | 54 | 1016.8 |
| 20260504015508 | 10 | 241 | 0.0 | 0.0 | 0.00 | 0.00 | 0.00 | 54 | 1016.7 |
| 20260504015007 | 10 | 241 | 0.0 | 0.0 | 0.00 | 0.00 | 0.00 | 54 | 1016.6 |
| 20260504014505 | 10 | 241 | 0.0 | 0.0 | 0.00 | 0.00 | 0.00 | 55 | 1016.6 |
| 20260504014003 | 10 | 241 | 0.0 | 0.0 | 0.00 | 0.00 | 0.00 | 55 | 1016.6 |
| 20260504013503 | 10 | 241 | 0.0 | 0.0 | 0.00 | 0.00 | 0.00 | 56 | 1016.6 |
| 20260504013107 | 11 | 241 | 0.0 | 0.0 | 0.00 | 0.00 | 0.00 | 56 | 1016.7 |
| 20260504012559 | 11 | 241 | 0.0 | 0.0 | 0.00 | 0.00 | 0.00 | 56 | 1016.6 |
| 20260504012058 | 11 | 241 | 0.0 | 0.0 | 0.00 | 0.00 | 0.00 | 56 | 1016.6 |
| 20260504011556 | 11 | 241 | 0.0 | 0.0 | 0.00 | 0.00 | 0.00 | 56 | 1016.5 |
| 20260504011057 | 11 | 241 | 0.0 | 0.0 | 0.00 | 0.00 | 0.00 | 56 | 1016.4 |
| 20260504010553 | 11 | 241 | 0.0 | 0.0 | 0.00 | 0.00 | 0.00 | 55 | 1016.5 |
| 20260504010052 | 11 | 241 | 0.0 | 0.0 | 0.00 | 0.00 | 0.00 | 54 | 1016.6 |
| 20260504005551 | 12 | 241 | 0.0 | 0.0 | 0.00 | 0.00 | 0.00 | 53 | 1016.6 |
| 20260504005050 | 12 | 241 | 0.0 | 0.0 | 0.00 | 0.00 | 0.00 | 53 | 1016.7 |
| 20260504004548 | 12 | 241 | 0.0 | 0.0 | 0.00 | 0.00 | 0.00 | 52 | 1016.5 |
| 20260504004046 | 12 | 241 | 0.0 | 0.0 | 0.00 | 0.00 | 0.00 | 52 | 1016.5 |
| 20260504003544 | 12 | 241 | 0.0 | 0.0 | 0.00 | 0.00 | 0.00 | 51 | 1016.4 |
| 20260504003046 | 12 | 241 | 0.0 | 0.0 | 0.00 | 0.00 | 0.00 | 49 | 1016.3 |
| 20260504002545 | 13 | 241 | 0.0 | 0.0 | 0.00 | 0.00 | 0.00 | 48 | 1016.3 |